Temperature
24 23 23 23 23 24 24 24 24 24 25 24 23 23 22 22 22 21 21 21 21 21 21 21 21 20 20 20 20 20 19 19 19 19 19 19 19 19 18 18 18 18 18 18
23 24 25 25 24 25 25 24 24 24 25 24 23 23 22 22 22 22 21 21 21 21 21 21 21 21 21 20 20 20 20 19 19 19 19 19 19 19 18 18 18 18 18 18
25 25 26 25 25 25 25 24 24 24 24 24 24 23 23 22 22 22 22 22 22 22 22 22 21 21 21 21 20 20 20 20 19 19 19 19 19 19 19 18 18 18 18 18
25 25 26 26 25 25 24 25 25 25 23 22 23 22 22 22 21 21 22 22 22 22 23 22 22 22 21 21 21 20 20 20 20 19 19 19 19 19 19 18 18 18 18 18
25 26 26 26 26 26 25 25 25 24 22 22 22 22 21 21 21 21 22 22 23 23 23 23 23 22 22 21 21 21 20 20 20 19 19 19 19 19 19 18 18 18 18 18
25 26 26 26 26 26 25 24 22 20 20 22 22 22 22 20 21 22 22 23 23 23 23 23 23 22 22 22 21 21 21 20 20 20 19 19 19 19 19 18 18 18 18 18
25 26 26 26 26 25 24 22 21 22 20 21 21 21 21 22 22 22 22 23 23 23 23 23 23 23 22 22 22 21 21 21 20 20 20 19 19 19 19 18 18 18 18 18
24 24 25 26 26 25 23 22 22 22 22 21 21 21 22 23 23 24 24 24 24 24 24 24 24 23 23 23 22 21 21 21 20 20 20 19 19 19 19 18 18 18 18 18
23 24 25 26 26 24 23 22 21 20 21 21 21 21 22 23 22 22 22 23 23 24 24 24 24 23 23 23 22 22 21 21 21 20 20 19 19 19 19 19 18 18 18 18
23 24 25 25 25 24 23 20 19 19 21 22 22 22 22 23 22 22 21 22 23 23 24 24 24 24 23 23 22 22 21 21 21 20 20 19 19 19 19 18 18 18 18 18
22 23 24 24 25 24 22 21 19 18 19 20 21 22 23 22 22 21 21 22 23 24 24 24 24 24 23 23 22 22 21 21 21 20 20 20 19 19 19 18 18 18 18 18
21 20 21 23 24 24 23 22 19 21 20 18 20 21 23 22 21 21 21 23 23 24 24 24 24 23 23 23 22 22 21 21 21 20 20 20 19 19 19 18 18 18 18 18
21 20 21 22 23 23 23 22 20 18 18 17 20 22 22 21 21 21 22 22 23 24 24 24 23 23 23 22 22 21 21 21 21 20 20 20 19 19 19 18 18 18 18 18
20 19 20 22 22 22 23 23 20 19 19 19 19 21 22 21 21 20 21 22 23 23 23 23 23 23 22 22 22 21 21 21 20 20 20 20 19 19 19 18 18 18 18 18
19 20 20 21 22 22 23 23 22 21 20 21 21 21 22 21 21 21 21 21 22 22 22 22 22 22 22 22 21 21 21 20 20 20 20 20 19 19 19 18 18 18 18 18
17 19 20 21 22 22 23 23 22 22 22 21 22 22 21 21 21 21 21 21 21 22 22 22 22 22 22 22 22 21 21 20 20 20 20 20 19 19 19 18 18 18 18 18
16 18 19 20 20 22 22 22 22 22 21 21 21 22 20 20 20 20 21 21 21 22 22 22 22 22 22 22 22 21 21 20 20 19 19 19 19 19 19 18 18 18 18 17
16 16 16 17 20 21 21 21 22 22 21 20 20 20 19 20 21 21 22 22 22 22 22 22 22 22 22 21 21 21 20 20 20 19 19 19 19 19 18 18 18 17 17 17
15 16 15 16 18 20 21 21 21 21 21 20 20 19 19 20 20 21 22 22 22 22 22 22 22 22 22 21 21 21 20 20 20 20 19 19 19 18 18 18 18 17 17 17
14 14 15 15 19 19 20 21 21 21 21 20 19 19 19 19 19 19 21 22 22 22 22 22 22 22 21 21 21 20 20 20 20 20 19 19 18 18 18 18 17 17 17 17
16 15 15 16 18 18 19 19 20 21 20 20 20 19 19 19 20 21 21 21 22 22 22 21 21 21 21 21 20 20 20 20 20 19 19 19 18 18 18 17 17 17 17 16
15 15 15 15 17 18 19 19 19 19 20 20 20 20 20 20 21 21 21 21 21 21 21 21 21 21 21 20 20 20 19 19 19 19 18 18 18 18 17 17 17 17 16 16
14 15 14 15 16 17 18 19 20 20 20 20 21 21 21 20 20 20 20 20 20 21 20 20 20 20 20 20 19 19 19 19 18 18 18 18 17 17 17 17 17 16 16 16
14 13 13 14 15 17 18 19 19 20 20 21 21 21 21 20 20 20 20 20 20 20 20 20 20 19 19 19 19 19 19 18 18 18 17 17 17 17 17 16 16 16 16 15
14 13 13 14 15 16 18 18 19 19 20 20 20 20 20 20 20 20 19 19 19 19 19 19 19 19 18 18 18 18 18 17 17 17 17 17 17 16 16 16 16 16 16 15
12 13 14 14 15 15 17 18 19 19 19 19 19 20 20 20 19 19 19 19 19 19 18 18 18 18 18 18 17 17 17 17 16 16 16 16 16 16 16 16 15 15 15 15
Wind_Speed
3 4 2 6 6 5 3 2 2 3 1 3 3 3 5 7 7 7 7 7 7 7 6 4 4 4 3 3 3 2 2 2 3 2 1 1 0 0 1 0 1 2 2 3
4 3 6 4 3 3 3 2 2 2 2 3 1 2 3 7 9 9 9 9 8 6 4 4 4 4 5 4 3 3 3 3 3 2 1 1 1 1 1 1 1 1 2 3
5 6 3 3 3 2 2 5 4 2 2 3 3 4 2 3 4 5 6 7 7 9 8 7 7 6 5 5 5 4 4 4 3 3 2 2 2 2 2 2 1 1 1 2
4 4 2 2 3 5 4 5 5 3 4 2 2 3 6 3 4 7 8 8 8 8 8 7 7 7 7 7 5 4 4 3 3 3 3 3 2 1 1 0 1 1 0 1
5 3 2 3 4 5 4 2 4 3 4 2 2 1 7 1 5 9 10 10 10 9 9 9 9 9 8 7 6 5 4 3 3 4 4 4 2 2 0 1 1 2 1 1
4 2 3 4 1 4 5 7 7 6 5 1 3 3 7 5 7 6 8 10 10 9 8 8 7 6 5 5 5 5 5 4 4 4 4 4 4 3 2 1 0 1 1 1
4 3 2 2 3 3 6 6 4 5 4 5 3 3 8 8 7 8 8 9 9 8 8 8 8 8 7 7 7 6 6 5 4 5 5 5 5 4 3 2 2 1 0 1
2 5 3 2 5 6 4 8 7 5 4 5 2 5 7 6 5 5 5 5 6 7 8 9 10 9 9 8 8 7 7 5 5 5 4 4 4 3 3 2 2 2 2 2
6 5 4 1 2 8 6 4 6 7 2 1 5 6 8 2 1 2 3 4 5 7 8 8 8 8 9 8 8 8 8 6 5 5 4 4 4 3 3 2 2 2 2 2
8 4 4 2 5 6 6 9 6 6 5 3 5 5 5 6 5 3 4 5 5 5 6 7 7 8 8 8 7 7 7 6 5 4 4 4 3 3 3 3 3 2 2 1
6 5 3 2 2 4 4 5 6 5 5 6 3 7 6 8 8 7 7 6 6 6 7 7 7 6 6 6 7 7 6 5 4 4 4 3 3 2 2 3 3 3 3 2
4 6 3 5 4 2 4 7 8 5 4 5 4 8 6 6 6 6 7 6 5 5 5 6 6 6 6 7 7 7 6 6 5 5 4 3 3 2 2 3 3 3 3 3
5 6 2 5 5 2 2 3 5 6 6 6 5 8 4 1 2 4 5 5 5 4 4 4 5 6 6 6 6 6 6 6 5 5 4 4 3 3 4 4 3 3 3 3
5 5 6 9 7 4 2 3 5 6 5 6 8 8 7 4 4 4 4 5 5 5 5 6 5 5 5 5 6 6 6 6 5 5 5 4 4 4 4 4 3 3 3 3
5 3 3 4 4 3 4 4 5 6 7 8 8 8 10 8 7 6 5 5 5 5 6 6 6 5 6 5 5 5 5 5 5 6 5 6 5 4 4 3 3 3 3 4
4 4 2 1 2 2 3 4 5 5 4 5 5 8 7 3 3 4 5 7 7 6 6 6 6 6 7 7 7 6 5 5 5 5 5 4 3 3 3 3 3 3 3 3
2 4 3 3 3 1 5 6 6 4 3 5 6 8 3 2 4 6 7 7 8 7 6 7 7 7 7 7 7 7 6 5 5 5 4 4 3 3 3 3 3 3 3 3
6 5 4 2 1 6 8 4 5 6 4 4 6 6 4 5 3 2 4 7 7 6 5 6 6 5 5 5 6 5 5 5 5 4 4 3 3 3 3 3 4 4 3 3
5 7 5 4 4 6 6 2 3 4 5 3 4 3 0 1 3 2 0 3 5 6 5 5 6 5 5 5 6 6 5 5 5 4 4 4 3 3 3 3 4 4 3 4
4 4 5 5 5 7 7 3 1 3 4 3 3 3 1 3 2 4 2 2 3 3 3 4 4 4 5 4 5 6 5 5 5 5 5 4 4 4 4 5 4 4 4 5
3 3 4 5 5 7 6 4 1 4 6 3 3 4 4 4 5 4 2 3 3 4 4 4 4 4 4 4 5 6 5 6 6 4 3 3 4 4 4 3 3 3 4 4
5 5 4 5 4 7 3 2 4 6 3 2 2 3 4 3 1 2 3 4 4 4 4 3 3 2 2 4 5 5 6 5 4 3 3 3 3 3 3 2 3 3 3 4
4 6 6 7 7 5 3 3 3 3 2 2 2 3 3 3 2 2 3 4 4 4 3 2 3 2 1 2 4 5 4 3 3 3 3 3 3 3 2 3 3 2 2 3
2 1 2 2 5 5 4 3 3 2 3 3 3 2 3 2 2 2 3 3 2 2 3 2 3 2 1 1 2 3 3 4 4 4 3 3 3 3 3 2 3 3 4 4
4 2 1 3 5 4 4 3 3 3 2 1 1 1 3 4 2 2 2 2 2 2 2 3 3 3 2 1 1 1 2 3 3 3 3 3 3 3 3 3 3 4 5 6
4 5 5 6 6 4 6 5 3 3 3 3 2 1 2 3 3 2 2 2 2 2 2 3 2 3 2 2 1 1 2 3 3 3 3 3 3 3 3 3 4 5 6 8
Wind_Direction
62 80 200 219 199 185 167 156 255 270 223 152 203 230 204 179 181 193 198 204 209 218 220 203 195 178 161 157 160 152 144 149 127 107 110 108 50 351 15 186 174 156 147 140
47 263 233 194 174 157 154 170 264 319 32 128 146 273 225 190 201 201 202 207 213 216 212 203 194 185 180 183 183 168 178 176 165 160 145 132 115 94 69 38 72 128 152 158
195 239 195 157 174 172 219 192 204 197 43 55 67 339 267 224 202 205 208 209 212 211 210 207 200 199 191 193 194 192 188 182 178 158 111 82 62 45 41 31 27 25 169 163
228 250 180 163 197 171 241 217 175 138 96 339 68 297 287 239 222 220 218 211 216 218 209 203 201 201 201 202 192 186 183 177 173 152 140 138 137 160 249 299 349 17 55 172
242 202 177 214 222 178 212 97 118 108 113 39 21 149 290 258 236 239 225 216 215 214 205 203 203 203 200 190 185 184 173 172 164 157 158 152 163 190 168 71 32 17 16 26
249 246 203 201 171 143 124 70 56 51 70 1 259 174 279 237 224 235 223 217 212 206 198 197 194 186 187 178 177 174 169 178 168 163 164 166 174 177 155 134 65 351 360 1
314 311 275 158 89 52 92 89 39 9 13 259 263 200 251 254 235 220 218 217 208 195 189 187 182 182 184 180 180 177 175 181 174 169 175 180 183 181 185 197 198 195 290 305
197 289 260 195 172 172 161 136 155 192 219 274 304 237 260 273 258 224 207 201 188 188 190 192 191 188 188 185 181 178 179 183 178 178 185 183 181 182 195 200 200 208 230 252
179 248 295 251 179 139 134 150 156 134 144 294 288 288 303 310 310 198 177 170 185 190 189 193 189 185 187 185 183 181 177 177 178 183 180 184 185 183 193 197 202 218 240 249
160 215 287 305 73 45 124 137 103 120 148 239 292 282 255 259 244 223 195 194 198 188 185 186 185 186 185 181 175 170 173 179 179 178 186 192 193 197 197 190 199 212 231 249
144 167 290 20 154 176 106 101 107 117 150 161 239 269 232 223 219 210 214 205 199 194 190 187 186 182 171 163 162 165 170 170 171 178 185 185 189 195 192 200 214 219 229 231
147 136 227 263 271 191 162 165 150 156 203 176 182 262 276 225 214 203 207 201 195 190 189 182 172 163 161 165 168 171 174 175 179 178 175 185 189 192 204 222 231 227 232 235
131 120 101 335 335 1 126 154 151 131 125 158 178 260 305 354 200 202 205 199 183 170 161 156 159 166 173 174 174 176 180 182 178 169 171 184 199 209 221 230 236 237 243 248
115 119 167 198 214 207 219 178 155 137 158 196 217 246 283 266 237 223 207 198 180 170 164 157 161 170 171 174 178 181 186 181 174 169 176 192 212 221 230 235 237 237 240 249
98 135 192 225 225 193 210 216 186 190 193 194 227 228 246 234 221 211 190 172 165 171 172 170 170 171 167 167 173 176 184 183 176 172 186 206 215 220 226 234 242 246 249 253
71 128 138 262 262 228 239 238 208 210 200 224 249 258 256 243 177 174 176 171 173 184 185 179 178 178 177 180 179 176 180 183 175 183 201 206 205 214 224 235 242 243 250 257
104 122 120 241 288 21 260 234 203 205 206 192 226 248 278 203 196 197 192 186 187 190 184 182 183 189 189 185 177 178 183 171 171 189 203 204 202 210 226 235 236 243 246 250
152 133 137 163 95 222 241 239 199 201 227 225 245 261 227 213 214 204 181 181 189 186 183 187 186 187 184 178 170 168 166 164 174 187 200 204 203 223 238 237 242 247 246 249
163 146 135 143 192 259 288 260 183 199 253 236 234 262 279 76 66 359 185 180 194 193 190 189 185 180 169 169 169 161 167 172 179 197 208 216 212 219 236 248 251 246 241 249
78 109 130 143 171 222 243 269 278 135 263 267 196 201 169 99 139 251 246 179 174 168 172 173 162 153 163 173 160 156 171 179 201 211 216 218 215 214 227 240 249 249 241 247
80 73 138 168 202 249 259 293 104 167 240 265 192 193 168 188 215 226 190 161 157 149 153 150 148 158 175 168 155 165 182 205 217 212 207 211 218 221 226 237 246 252 253 260
170 153 175 160 186 243 274 99 164 220 263 265 212 206 195 202 201 171 158 144 130 120 116 124 137 146 161 164 157 177 207 215 207 192 194 217 232 236 237 237 252 255 249 258
195 190 185 189 211 248 250 214 233 204 225 257 235 233 185 175 174 155 143 138 134 135 132 128 137 140 179 185 173 189 220 196 181 185 205 224 239 245 238 230 243 260 254 259
270 149 150 250 271 279 279 282 280 252 239 253 235 211 170 177 177 149 138 140 135 132 135 121 123 149 188 216 201 201 200 181 175 193 216 227 234 256 260 246 239 245 252 256
232 173 169 261 281 312 301 288 292 306 303 279 234 188 166 148 159 161 156 159 162 145 147 142 158 178 196 191 200 217 183 171 185 213 225 234 233 238 254 260 252 248 248 241
211 189 185 227 230 220 262 280 286 287 279 253 222 197 162 162 169 163 168 171 151 154 160 152 169 182 191 178 201 253 212 183 190 226 239 239 242 248 251 262 283 270 258 257
Height
1499 1505 1510 1506 1505 1506 1509 1514 1515 1511 1504 1507 1511 1511 1509 1509 1511 1513 1514 1515 1516 1517 1519 1520 1521 1522 1522 1523 1523 1524 1524 1525 1525 1525 1525 1525 1525 1525 1525 1525 1526 1526 1527 1527
1504 1507 1499 1499 1501 1503 1507 1513 1514 1509 1504 1507 1512 1512 1508 1508 1509 1510 1511 1513 1514 1516 1517 1518 1520 1521 1521 1522 1523 1524 1524 1525 1525 1526 1526 1526 1526 1526 1526 1526 1527 1527 1528 1528
1504 1500 1495 1498 1502 1505 1507 1511 1511 1511 1508 1508 1512 1516 1510 1507 1508 1510 1511 1512 1513 1514 1515 1516 1518 1519 1521 1522 1522 1523 1524 1525 1525 1526 1527 1527 1527 1527 1527 1527 1527 1528 1528 1529
1499 1495 1495 1498 1501 1503 1511 1501 1504 1508 1517 1525 1520 1534 1515 1510 1509 1508 1508 1509 1510 1511 1513 1514 1516 1518 1519 1521 1522 1523 1524 1525 1526 1526 1527 1527 1527 1527 1527 1528 1528 1529 1529 1529
1498 1493 1495 1499 1497 1498 1502 1498 1503 1509 1519 1527 1525 1533 1523 1511 1511 1506 1504 1505 1506 1508 1510 1512 1514 1516 1518 1520 1521 1522 1523 1524 1525 1526 1526 1527 1527 1528 1528 1528 1528 1529 1529 1529
1493 1490 1491 1492 1492 1494 1497 1504 1511 1519 1527 1540 1529 1533 1529 1515 1507 1501 1499 1500 1502 1504 1507 1509 1512 1514 1516 1518 1520 1521 1523 1524 1525 1525 1526 1527 1527 1528 1528 1528 1528 1528 1528 1528
1498 1493 1489 1489 1495 1497 1500 1517 1538 1541 1549 1545 1527 1530 1524 1501 1497 1495 1495 1496 1498 1501 1503 1506 1509 1511 1514 1516 1518 1520 1521 1523 1524 1525 1525 1526 1527 1527 1528 1528 1528 1528 1528 1528
1509 1509 1492 1488 1492 1499 1504 1513 1537 1549 1551 1542 1529 1529 1511 1495 1492 1491 1492 1494 1496 1498 1501 1503 1506 1509 1511 1514 1516 1518 1520 1521 1523 1524 1525 1525 1526 1527 1527 1527 1527 1527 1527 1527
1508 1507 1489 1486 1486 1492 1505 1513 1514 1533 1538 1543 1535 1521 1504 1492 1491 1491 1491 1492 1494 1496 1498 1501 1504 1507 1509 1512 1514 1516 1518 1520 1521 1522 1523 1524 1525 1526 1526 1526 1526 1526 1526 1526
1494 1504 1492 1487 1487 1492 1497 1507 1522 1534 1546 1548 1535 1526 1516 1498 1493 1491 1491 1491 1492 1494 1496 1499 1502 1504 1507 1510 1512 1514 1516 1518 1520 1521 1522 1523 1524 1524 1525 1525 1525 1525 1525 1525
1489 1502 1499 1493 1495 1499 1503 1509 1519 1530 1533 1544 1546 1529 1495 1492 1489 1489 1488 1489 1490 1492 1494 1497 1499 1502 1505 1508 1510 1512 1515 1517 1519 1520 1521 1522 1522 1523 1523 1523 1523 1523 1523 1524
1489 1501 1509 1501 1491 1489 1493 1501 1512 1524 1530 1535 1537 1524 1485 1484 1484 1485 1486 1488 1489 1491 1494 1496 1498 1501 1503 1505 1508 1510 1513 1515 1517 1519 1519 1520 1521 1521 1521 1521 1522 1522 1522 1522
1488 1501 1515 1513 1506 1496 1495 1498 1503 1512 1525 1535 1535 1516 1484 1483 1483 1484 1485 1486 1488 1491 1493 1495 1497 1499 1502 1504 1506 1509 1511 1513 1515 1516 1517 1518 1519 1519 1519 1520 1520 1520 1520 1520
1482 1499 1508 1514 1508 1499 1497 1497 1501 1509 1521 1526 1520 1506 1489 1485 1484 1484 1485 1486 1487 1489 1491 1493 1496 1498 1501 1503 1505 1507 1509 1511 1512 1514 1515 1516 1517 1517 1517 1518 1518 1518 1518 1517
1483 1497 1496 1495 1492 1492 1492 1493 1496 1500 1503 1509 1503 1499 1487 1482 1481 1482 1483 1484 1486 1488 1490 1492 1495 1497 1499 1501 1503 1505 1507 1509 1510 1511 1512 1513 1514 1515 1515 1515 1515 1515 1515 1515
1487 1495 1496 1495 1491 1491 1492 1490 1491 1492 1494 1496 1494 1491 1479 1478 1479 1480 1481 1482 1484 1486 1488 1491 1493 1495 1496 1498 1500 1503 1505 1507 1508 1509 1509 1510 1511 1512 1512 1512 1512 1512 1512 1512
1492 1496 1503 1505 1496 1492 1500 1489 1489 1489 1488 1490 1492 1484 1478 1478 1477 1477 1479 1480 1482 1484 1486 1488 1491 1493 1495 1497 1499 1500 1502 1504 1506 1507 1508 1508 1509 1509 1509 1509 1509 1509 1509 1508
1491 1497 1505 1509 1503 1511 1493 1480 1480 1482 1483 1482 1481 1478 1477 1476 1475 1476 1477 1478 1480 1482 1484 1486 1489 1492 1494 1496 1497 1499 1500 1502 1503 1504 1505 1506 1506 1506 1506 1506 1506 1505 1505 1505
1484 1493 1505 1512 1511 1503 1488 1479 1480 1483 1482 1478 1478 1476 1476 1475 1475 1476 1477 1477 1479 1481 1483 1485 1487 1490 1492 1493 1495 1497 1498 1499 1500 1501 1502 1503 1502 1502 1502 1502 1502 1502 1502 1501
1485 1488 1500 1508 1508 1508 1489 1476 1475 1479 1484 1475 1474 1474 1475 1475 1480 1477 1475 1476 1478 1480 1482 1484 1486 1488 1490 1491 1493 1494 1495 1496 1497 1498 1499 1500 1500 1499 1499 1499 1499 1498 1498 1497
1492 1496 1500 1504 1503 1495 1479 1475 1475 1489 1484 1472 1472 1472 1472 1473 1473 1472 1472 1474 1476 1478 1480 1482 1484 1486 1487 1489 1490 1491 1492 1493 1494 1495 1496 1497 1497 1496 1496 1495 1495 1494 1494 1493
1491 1496 1500 1502 1502 1495 1475 1474 1479 1478 1472 1470 1470 1470 1471 1470 1471 1470 1471 1472 1474 1476 1478 1481 1482 1484 1485 1487 1488 1489 1489 1490 1491 1492 1493 1494 1494 1493 1492 1492 1491 1491 1490 1489
1486 1486 1487 1489 1487 1476 1473 1472 1472 1472 1471 1470 1469 1469 1470 1469 1470 1470 1471 1472 1474 1476 1478 1480 1481 1482 1483 1485 1486 1486 1487 1487 1488 1489 1489 1490 1490 1490 1489 1488 1487 1487 1486 1485
1481 1480 1482 1482 1476 1473 1472 1471 1471 1470 1470 1469 1469 1469 1469 1469 1469 1470 1470 1472 1473 1475 1476 1478 1479 1480 1480 1482 1483 1483 1484 1484 1485 1485 1485 1486 1486 1485 1485 1485 1484 1483 1482 1481
1479 1479 1481 1480 1475 1472 1470 1470 1470 1469 1469 1468 1468 1468 1468 1468 1469 1469 1470 1471 1472 1474 1476 1477 1477 1478 1478 1479 1480 1481 1481 1481 1481 1481 1481 1481 1481 1481 1481 1481 1480 1479 1478 1478
1475 1476 1478 1477 1472 1472 1469 1469 1469 1468 1467 1467 1467 1466 1467 1468 1468 1469 1470 1471 1472 1473 1474 1475 1475 1476 1476 1477 1477 1478 1479 1479 1478 1478 1478 1477 1477 1477 1477 1476 1475 1475 1474 1473